Year,Month,Day,Hour,Minute,Value (Times are PST for temperature in C)
2015,04,14,00,00,6.20
2015,04,14,00,01,6.20
2015,04,14,00,02,6.20
2015,04,14,00,03,6.20
2015,04,14,00,04,6.20
2015,04,14,00,05,6.20
2015,04,14,00,06,6.20
2015,04,14,00,07,6.20
2015,04,14,00,08,6.20
2015,04,14,00,09,6.20
2015,04,14,00,10,6.20
2015,04,14,00,11,6.20
2015,04,14,00,12,6.20
2015,04,14,00,13,6.20
2015,04,14,00,14,6.20
2015,04,14,00,15,6.20
2015,04,14,00,16,6.20
2015,04,14,00,17,6.20
2015,04,14,00,18,6.20
2015,04,14,00,19,6.20
2015,04,14,00,20,6.20
2015,04,14,00,21,6.20
2015,04,14,00,22,6.20
2015,04,14,00,23,6.20
2015,04,14,00,24,6.20
2015,04,14,00,25,6.20
2015,04,14,00,26,6.20
2015,04,14,00,27,6.20
2015,04,14,00,28,6.20
2015,04,14,00,29,6.20
2015,04,14,00,30,6.20
2015,04,14,00,31,6.20
2015,04,14,00,32,6.20
2015,04,14,00,33,6.20
2015,04,14,00,34,6.20
2015,04,14,00,35,6.20
2015,04,14,00,36,6.20
2015,04,14,00,37,6.20
2015,04,14,00,38,6.30
2015,04,14,00,39,6.30
2015,04,14,00,40,6.30
2015,04,14,00,41,6.30
2015,04,14,00,42,6.30
2015,04,14,00,43,6.30
2015,04,14,00,44,6.30
2015,04,14,00,45,6.30
2015,04,14,00,46,6.30
2015,04,14,00,47,6.30
2015,04,14,00,48,6.30
2015,04,14,00,49,6.30
2015,04,14,00,50,6.30
2015,04,14,00,51,6.30
2015,04,14,00,52,6.30
2015,04,14,00,53,6.30
2015,04,14,00,54,6.30
2015,04,14,00,55,6.30
2015,04,14,00,56,6.20
2015,04,14,00,57,6.20
2015,04,14,00,58,6.20
2015,04,14,00,59,6.20
2015,04,14,01,00,6.20
2015,04,14,01,01,6.20
2015,04,14,01,02,6.20
2015,04,14,01,03,6.20
2015,04,14,01,04,6.20
2015,04,14,01,05,6.20
2015,04,14,01,06,6.20
2015,04,14,01,07,6.20
2015,04,14,01,08,6.20
2015,04,14,01,09,6.20
2015,04,14,01,10,6.20
2015,04,14,01,11,6.20
2015,04,14,01,12,6.20
2015,04,14,01,13,6.20
2015,04,14,01,14,6.20
2015,04,14,01,15,6.20
2015,04,14,01,16,6.20
2015,04,14,01,17,6.20
2015,04,14,01,18,6.20
2015,04,14,01,19,6.10
2015,04,14,01,20,6.10
2015,04,14,01,21,6.10
2015,04,14,01,22,6.20
2015,04,14,01,23,6.20
2015,04,14,01,24,6.20
2015,04,14,01,25,6.20
2015,04,14,01,26,6.20
2015,04,14,01,27,6.20
2015,04,14,01,28,6.20
2015,04,14,01,29,6.20
2015,04,14,01,30,6.20
2015,04,14,01,31,6.20
2015,04,14,01,32,6.10
2015,04,14,01,33,6.10
2015,04,14,01,34,6.10
2015,04,14,01,35,6.10
2015,04,14,01,36,6.10
2015,04,14,01,37,6.10
2015,04,14,01,38,6.00
2015,04,14,01,39,6.00
2015,04,14,01,40,6.00
2015,04,14,01,41,6.00
2015,04,14,01,42,6.00
2015,04,14,01,43,5.90
2015,04,14,01,44,5.90
2015,04,14,01,45,5.90
2015,04,14,01,46,5.90
2015,04,14,01,47,5.80
2015,04,14,01,48,5.80
2015,04,14,01,49,5.80
2015,04,14,01,50,5.80
2015,04,14,01,51,5.80
2015,04,14,01,52,5.80
2015,04,14,01,53,5.80
2015,04,14,01,54,5.70
2015,04,14,01,55,5.70
2015,04,14,01,56,5.70
2015,04,14,01,57,5.70
2015,04,14,01,58,5.70
2015,04,14,01,59,5.70
2015,04,14,02,00,5.70
2015,04,14,02,01,5.70
2015,04,14,02,02,5.70
2015,04,14,02,03,5.70
2015,04,14,02,04,5.60
2015,04,14,02,05,5.70
2015,04,14,02,06,5.60
2015,04,14,02,07,5.70
2015,04,14,02,08,5.70
2015,04,14,02,09,5.70
2015,04,14,02,10,5.70
2015,04,14,02,11,5.70
2015,04,14,02,12,5.70
2015,04,14,02,13,5.70
2015,04,14,02,14,5.70
2015,04,14,02,15,5.70
2015,04,14,02,16,5.70
2015,04,14,02,17,5.70
2015,04,14,02,18,5.70
2015,04,14,02,19,5.70
2015,04,14,02,20,5.70
2015,04,14,02,21,5.60
2015,04,14,02,22,5.70
2015,04,14,02,23,5.70
2015,04,14,02,24,5.70
2015,04,14,02,25,5.70
2015,04,14,02,26,5.70
2015,04,14,02,27,5.70
2015,04,14,02,28,5.70
2015,04,14,02,29,5.70
2015,04,14,02,30,5.70
2015,04,14,02,31,5.70
2015,04,14,02,32,5.70
2015,04,14,02,33,5.70
2015,04,14,02,34,5.70
2015,04,14,02,35,5.70
2015,04,14,02,36,5.70
2015,04,14,02,37,5.70
2015,04,14,02,38,5.70
2015,04,14,02,39,5.70
2015,04,14,02,40,5.70
2015,04,14,02,41,5.70
2015,04,14,02,42,5.70
2015,04,14,02,43,5.70
2015,04,14,02,44,5.60
2015,04,14,02,45,5.60
2015,04,14,02,46,5.60
2015,04,14,02,47,5.60
2015,04,14,02,48,5.60
2015,04,14,02,49,5.50
2015,04,14,02,50,5.50
2015,04,14,02,51,5.50
2015,04,14,02,52,5.50
2015,04,14,02,53,5.50
2015,04,14,02,54,5.40
2015,04,14,02,55,5.40
2015,04,14,02,56,5.40
2015,04,14,02,57,5.40
2015,04,14,02,58,5.40
2015,04,14,02,59,5.50
2015,04,14,03,00,5.50
2015,04,14,03,01,5.50
2015,04,14,03,02,5.50
2015,04,14,03,03,5.50
2015,04,14,03,04,5.60
2015,04,14,03,05,5.60
2015,04,14,03,06,5.60
2015,04,14,03,07,5.60
2015,04,14,03,08,5.60
2015,04,14,03,09,5.60
2015,04,14,03,10,5.60
2015,04,14,03,11,5.60
2015,04,14,03,12,5.60
2015,04,14,03,13,5.60
2015,04,14,03,14,5.60
2015,04,14,03,15,5.60
2015,04,14,03,16,5.60
2015,04,14,03,17,5.50
2015,04,14,03,18,5.50
2015,04,14,03,19,5.40
2015,04,14,03,20,5.40
2015,04,14,03,21,5.40
2015,04,14,03,22,5.30
2015,04,14,03,23,5.30
2015,04,14,03,24,5.30
2015,04,14,03,25,5.30
2015,04,14,03,26,5.30
2015,04,14,03,27,5.20
2015,04,14,03,28,5.20
2015,04,14,03,29,5.20
2015,04,14,03,30,5.20
2015,04,14,03,31,5.20
2015,04,14,03,32,5.20
2015,04,14,03,33,5.10
2015,04,14,03,34,5.10
2015,04,14,03,35,5.10
2015,04,14,03,36,5.10
2015,04,14,03,37,5.10
2015,04,14,03,38,5.10
2015,04,14,03,39,5.10
2015,04,14,03,40,5.00
2015,04,14,03,41,5.00
2015,04,14,03,42,5.00
2015,04,14,03,43,5.00
2015,04,14,03,44,5.00
2015,04,14,03,45,4.90
2015,04,14,03,46,4.90
2015,04,14,03,47,4.90
2015,04,14,03,48,4.90
2015,04,14,03,49,4.90
2015,04,14,03,50,4.90
2015,04,14,03,51,4.90
2015,04,14,03,52,4.90
2015,04,14,03,53,4.90
2015,04,14,03,54,4.90
2015,04,14,03,55,4.80
2015,04,14,03,56,4.80
2015,04,14,03,57,4.80
2015,04,14,03,58,4.80
2015,04,14,03,59,4.80
2015,04,14,04,00,4.80
2015,04,14,04,01,4.70
2015,04,14,04,02,4.70
2015,04,14,04,03,4.70
2015,04,14,04,04,4.70
2015,04,14,04,05,4.70
2015,04,14,04,06,4.70
2015,04,14,04,07,4.70
2015,04,14,04,08,4.70
2015,04,14,04,09,4.70
2015,04,14,04,10,4.70
2015,04,14,04,11,4.70
2015,04,14,04,12,4.70
2015,04,14,04,13,4.70
2015,04,14,04,14,4.70
2015,04,14,04,15,4.70
2015,04,14,04,16,4.70
2015,04,14,04,17,4.70
2015,04,14,04,18,4.70
2015,04,14,04,19,4.70
2015,04,14,04,20,4.70
2015,04,14,04,21,4.70
2015,04,14,04,22,4.80
2015,04,14,04,23,4.80
2015,04,14,04,24,4.80
2015,04,14,04,25,4.80
2015,04,14,04,26,4.80
2015,04,14,04,27,4.80
2015,04,14,04,28,4.80
2015,04,14,04,29,4.80
2015,04,14,04,30,4.80
2015,04,14,04,31,4.80
2015,04,14,04,32,4.90
2015,04,14,04,33,4.90
2015,04,14,04,34,4.90
2015,04,14,04,35,4.90
2015,04,14,04,36,4.80
2015,04,14,04,37,4.90
2015,04,14,04,38,4.90
2015,04,14,04,39,4.90
2015,04,14,04,40,4.90
2015,04,14,04,41,4.90
2015,04,14,04,42,4.90
2015,04,14,04,43,4.90
2015,04,14,04,44,4.90
2015,04,14,04,45,4.90
2015,04,14,04,46,4.90
2015,04,14,04,47,5.00
2015,04,14,04,48,5.00
2015,04,14,04,49,5.00
2015,04,14,04,50,5.00
2015,04,14,04,51,5.00
2015,04,14,04,52,5.00
2015,04,14,04,53,5.00
2015,04,14,04,54,5.00
2015,04,14,04,55,5.00
2015,04,14,04,56,5.00
2015,04,14,04,57,5.00
2015,04,14,04,58,5.00
2015,04,14,04,59,5.10
2015,04,14,05,00,5.10
2015,04,14,05,01,5.10
2015,04,14,05,02,5.10
2015,04,14,05,03,5.10
2015,04,14,05,04,5.10
2015,04,14,05,05,5.10
2015,04,14,05,06,5.00
2015,04,14,05,07,5.00
2015,04,14,05,08,5.00
2015,04,14,05,09,5.00
2015,04,14,05,10,5.00
2015,04,14,05,11,5.00
2015,04,14,05,12,5.00
2015,04,14,05,13,5.00
2015,04,14,05,14,5.00
2015,04,14,05,15,5.00
2015,04,14,05,16,5.00
2015,04,14,05,17,5.00
2015,04,14,05,18,5.00
2015,04,14,05,19,5.00
2015,04,14,05,20,5.00
2015,04,14,05,21,5.00
2015,04,14,05,22,5.00
2015,04,14,05,23,5.00
2015,04,14,05,24,5.00
2015,04,14,05,25,5.00
2015,04,14,05,26,5.00
2015,04,14,05,27,5.00
2015,04,14,05,28,5.00
2015,04,14,05,29,5.00
2015,04,14,05,30,5.00
2015,04,14,05,31,5.00
2015,04,14,05,32,5.00
2015,04,14,05,33,5.00
2015,04,14,05,34,5.00
2015,04,14,05,35,4.90
2015,04,14,05,36,4.90
2015,04,14,05,37,4.90
2015,04,14,05,38,5.00
2015,04,14,05,39,4.90
2015,04,14,05,40,4.90
2015,04,14,05,41,4.90
2015,04,14,05,42,4.90
2015,04,14,05,43,4.90
2015,04,14,05,44,4.90
2015,04,14,05,45,4.90
2015,04,14,05,46,4.90
2015,04,14,05,47,4.80
2015,04,14,05,48,4.80
2015,04,14,05,49,4.80
2015,04,14,05,50,4.80
2015,04,14,05,51,4.80
2015,04,14,05,52,4.90
2015,04,14,05,53,4.90
2015,04,14,05,54,4.90
2015,04,14,05,55,4.90
2015,04,14,05,56,4.90
2015,04,14,05,57,4.90
2015,04,14,05,58,5.00
2015,04,14,05,59,5.00
2015,04,14,06,00,5.00
2015,04,14,06,01,5.00
2015,04,14,06,02,5.00
2015,04,14,06,03,5.00
2015,04,14,06,04,5.00
2015,04,14,06,05,5.00
2015,04,14,06,06,5.00
2015,04,14,06,07,5.00
2015,04,14,06,08,5.00
2015,04,14,06,09,4.90
2015,04,14,06,10,4.90
2015,04,14,06,11,4.90
2015,04,14,06,12,4.90
2015,04,14,06,13,4.90
2015,04,14,06,14,4.80
2015,04,14,06,15,4.80
2015,04,14,06,16,4.80
2015,04,14,06,17,4.80
2015,04,14,06,18,4.70
2015,04,14,06,19,4.70
2015,04,14,06,20,4.70
2015,04,14,06,21,4.60
2015,04,14,06,22,4.60
2015,04,14,06,23,4.60
2015,04,14,06,24,4.60
2015,04,14,06,25,4.60
2015,04,14,06,26,4.60
2015,04,14,06,27,4.60
2015,04,14,06,28,4.60
2015,04,14,06,29,4.60
2015,04,14,06,30,4.70
2015,04,14,06,31,4.70
2015,04,14,06,32,4.70
2015,04,14,06,33,4.70
2015,04,14,06,34,4.70
2015,04,14,06,35,4.70
2015,04,14,06,36,4.80
2015,04,14,06,37,4.80
2015,04,14,06,38,4.80
2015,04,14,06,39,4.80
2015,04,14,06,40,4.80
2015,04,14,06,41,4.80
2015,04,14,06,42,4.80
2015,04,14,06,43,4.90
2015,04,14,06,44,4.90
2015,04,14,06,45,4.90
2015,04,14,06,46,4.90
2015,04,14,06,47,4.90
2015,04,14,06,48,4.90
2015,04,14,06,49,4.90
2015,04,14,06,50,4.90
2015,04,14,06,51,4.90
2015,04,14,06,52,4.90
2015,04,14,06,53,4.90
2015,04,14,06,54,4.90
2015,04,14,06,55,4.90
2015,04,14,06,56,4.90
2015,04,14,06,57,4.90
2015,04,14,06,58,4.80
2015,04,14,06,59,4.80
2015,04,14,07,00,4.80
2015,04,14,07,01,4.70
2015,04,14,07,02,4.70
2015,04,14,07,03,4.70
2015,04,14,07,04,4.60
2015,04,14,07,05,4.60
2015,04,14,07,06,4.60
2015,04,14,07,07,4.60
2015,04,14,07,08,4.60
2015,04,14,07,09,4.60
2015,04,14,07,10,4.60
2015,04,14,07,11,4.60
2015,04,14,07,12,4.70
2015,04,14,07,13,4.70
2015,04,14,07,14,4.70
2015,04,14,07,15,4.80
2015,04,14,07,16,4.80
2015,04,14,07,17,4.90
2015,04,14,07,18,4.90
2015,04,14,07,19,4.90
2015,04,14,07,20,5.00
2015,04,14,07,21,5.00
2015,04,14,07,22,5.10
2015,04,14,07,23,5.10
2015,04,14,07,24,5.10
2015,04,14,07,25,5.10
2015,04,14,07,26,5.20
2015,04,14,07,27,5.20
2015,04,14,07,28,5.20
2015,04,14,07,29,5.20
2015,04,14,07,30,5.30
2015,04,14,07,31,5.30
2015,04,14,07,32,5.30
2015,04,14,07,33,5.30
2015,04,14,07,34,5.40
2015,04,14,07,35,5.40
2015,04,14,07,36,5.50
2015,04,14,07,37,5.50
2015,04,14,07,38,5.50
2015,04,14,07,39,5.60
2015,04,14,07,40,5.60
2015,04,14,07,41,5.60
2015,04,14,07,42,5.60
2015,04,14,07,43,5.60
2015,04,14,07,44,5.70
2015,04,14,07,45,5.70
2015,04,14,07,46,5.70
2015,04,14,07,47,5.80
2015,04,14,07,48,5.80
2015,04,14,07,49,5.80
2015,04,14,07,50,5.90
2015,04,14,07,51,5.90
2015,04,14,07,52,5.90
2015,04,14,07,53,6.00
2015,04,14,07,54,6.00
2015,04,14,07,55,6.10
2015,04,14,07,56,6.10
2015,04,14,07,57,6.10
2015,04,14,07,58,6.10
2015,04,14,07,59,6.20
2015,04,14,08,00,6.20
2015,04,14,08,01,6.20
2015,04,14,08,02,6.20
2015,04,14,08,03,6.30
2015,04,14,08,04,6.30
2015,04,14,08,05,6.30
2015,04,14,08,06,6.40
2015,04,14,08,07,6.40
2015,04,14,08,08,6.40
2015,04,14,08,09,6.50
2015,04,14,08,10,6.50
2015,04,14,08,11,6.50
2015,04,14,08,12,6.60
2015,04,14,08,13,6.60
2015,04,14,08,14,6.60
2015,04,14,08,15,6.70
2015,04,14,08,16,6.70
2015,04,14,08,17,6.70
2015,04,14,08,18,6.70
2015,04,14,08,19,6.80
2015,04,14,08,20,6.80
2015,04,14,08,21,6.80
2015,04,14,08,22,6.90
2015,04,14,08,23,6.90
2015,04,14,08,24,7.00
2015,04,14,08,25,7.00
2015,04,14,08,26,7.00
2015,04,14,08,27,7.10
2015,04,14,08,28,7.10
2015,04,14,08,29,7.20
2015,04,14,08,30,7.20
2015,04,14,08,31,7.20
2015,04,14,08,32,7.30
2015,04,14,08,33,7.30
2015,04,14,08,34,7.30
2015,04,14,08,35,7.30
2015,04,14,08,36,7.40
2015,04,14,08,37,7.40
2015,04,14,08,38,7.40
2015,04,14,08,39,7.40
2015,04,14,08,40,7.40
2015,04,14,08,41,7.50
2015,04,14,08,42,7.50
2015,04,14,08,43,7.60
2015,04,14,08,44,7.60
2015,04,14,08,45,7.70
2015,04,14,08,46,7.70
2015,04,14,08,47,7.70
2015,04,14,08,48,7.70
2015,04,14,08,49,7.80
2015,04,14,08,50,7.80
2015,04,14,08,51,7.80
2015,04,14,08,52,7.80
2015,04,14,08,53,7.80
2015,04,14,08,54,7.90
2015,04,14,08,55,7.90
2015,04,14,08,56,7.90
2015,04,14,08,57,8.00
2015,04,14,08,58,8.10
2015,04,14,08,59,8.10
2015,04,14,09,00,8.10
2015,04,14,09,01,8.10
2015,04,14,09,02,8.20
2015,04,14,09,03,8.20
2015,04,14,09,04,8.20
2015,04,14,09,05,8.20
2015,04,14,09,06,8.20
2015,04,14,09,07,8.20
2015,04,14,09,08,8.20
2015,04,14,09,09,8.30
2015,04,14,09,10,8.30
2015,04,14,09,11,8.30
2015,04,14,09,12,8.30
2015,04,14,09,13,8.30
2015,04,14,09,14,8.30
2015,04,14,09,15,8.40
2015,04,14,09,16,8.40
2015,04,14,09,17,8.40
2015,04,14,09,18,8.40
2015,04,14,09,19,8.50
2015,04,14,09,20,8.50
2015,04,14,09,21,8.50
2015,04,14,09,22,8.60
2015,04,14,09,23,8.60
2015,04,14,09,24,8.70
2015,04,14,09,25,8.70
2015,04,14,09,26,8.80
2015,04,14,09,27,8.80
2015,04,14,09,28,8.80
2015,04,14,09,29,8.80
2015,04,14,09,30,8.80
2015,04,14,09,31,8.90
2015,04,14,09,32,8.90
2015,04,14,09,33,8.90
2015,04,14,09,34,8.90
2015,04,14,09,35,9.00
2015,04,14,09,36,9.00
2015,04,14,09,37,9.00
2015,04,14,09,38,9.10
2015,04,14,09,39,9.10
2015,04,14,09,40,9.10
2015,04,14,09,41,9.10
2015,04,14,09,42,9.20
2015,04,14,09,43,9.20
2015,04,14,09,44,9.20
2015,04,14,09,45,9.20
2015,04,14,09,46,9.20
2015,04,14,09,47,9.30
2015,04,14,09,48,9.30
2015,04,14,09,49,9.30
2015,04,14,09,50,9.30
2015,04,14,09,51,9.30
2015,04,14,09,52,9.30
2015,04,14,09,53,9.30
2015,04,14,09,54,9.30
2015,04,14,09,55,9.30
2015,04,14,09,56,9.30
2015,04,14,09,57,9.40
2015,04,14,09,58,9.40
2015,04,14,09,59,9.40
2015,04,14,10,00,9.50
2015,04,14,10,01,9.50
2015,04,14,10,02,9.50
2015,04,14,10,03,9.60
2015,04,14,10,04,9.60
2015,04,14,10,05,9.60
2015,04,14,10,06,9.70
2015,04,14,10,07,9.70
2015,04,14,10,08,9.70
2015,04,14,10,09,9.70
2015,04,14,10,10,9.70
2015,04,14,10,11,9.70
2015,04,14,10,12,9.70
2015,04,14,10,13,9.70
2015,04,14,10,14,9.80
2015,04,14,10,15,9.80
2015,04,14,10,16,9.80
2015,04,14,10,17,9.90
2015,04,14,10,18,9.90
2015,04,14,10,19,9.80
2015,04,14,10,20,9.80
2015,04,14,10,21,9.80
2015,04,14,10,22,9.80
2015,04,14,10,23,9.80
2015,04,14,10,24,9.80
2015,04,14,10,25,9.80
2015,04,14,10,26,9.80
2015,04,14,10,27,9.80
2015,04,14,10,28,9.80
2015,04,14,10,29,9.90
2015,04,14,10,30,9.90
2015,04,14,10,31,10.00
2015,04,14,10,32,10.10
2015,04,14,10,33,10.10
2015,04,14,10,34,10.10
2015,04,14,10,35,10.10
2015,04,14,10,36,10.20
2015,04,14,10,37,10.20
2015,04,14,10,38,10.20
2015,04,14,10,39,10.20
2015,04,14,10,40,10.30
2015,04,14,10,41,10.30
2015,04,14,10,42,10.40
2015,04,14,10,43,10.40
2015,04,14,10,44,10.40
2015,04,14,10,45,10.40
2015,04,14,10,46,10.50
2015,04,14,10,47,10.50
2015,04,14,10,48,10.60
2015,04,14,10,49,10.60
2015,04,14,10,50,10.70
2015,04,14,10,51,10.70
2015,04,14,10,52,10.80
2015,04,14,10,53,10.80
2015,04,14,10,54,10.80
2015,04,14,10,55,10.80
2015,04,14,10,56,10.80
2015,04,14,10,57,10.70
2015,04,14,10,58,10.70
2015,04,14,10,59,10.80
2015,04,14,11,00,10.80
2015,04,14,11,01,10.80
2015,04,14,11,02,10.80
2015,04,14,11,03,10.80
2015,04,14,11,04,10.80
2015,04,14,11,05,10.80
2015,04,14,11,06,10.90
2015,04,14,11,07,10.90
2015,04,14,11,08,10.90
2015,04,14,11,09,10.90
2015,04,14,11,10,10.90
2015,04,14,11,11,11.00
2015,04,14,11,12,11.10
2015,04,14,11,13,11.20
2015,04,14,11,14,11.30
2015,04,14,11,15,11.30
2015,04,14,11,16,11.30
2015,04,14,11,17,11.40
2015,04,14,11,18,11.30
2015,04,14,11,19,11.20
2015,04,14,11,20,11.00
2015,04,14,11,21,10.90
2015,04,14,11,22,10.90
2015,04,14,11,23,10.80
2015,04,14,11,24,10.80
2015,04,14,11,25,10.80
2015,04,14,11,26,10.80
2015,04,14,11,27,10.90
2015,04,14,11,28,11.00
2015,04,14,11,29,11.10
2015,04,14,11,30,11.20
2015,04,14,11,31,11.20
2015,04,14,11,32,11.20
2015,04,14,11,33,11.30
2015,04,14,11,34,11.30
2015,04,14,11,35,11.30
2015,04,14,11,36,11.30
2015,04,14,11,37,11.30
2015,04,14,11,38,11.30
2015,04,14,11,39,11.40
2015,04,14,11,40,11.50
2015,04,14,11,41,11.60
2015,04,14,11,42,11.70
2015,04,14,11,43,11.80
2015,04,14,11,44,11.80
2015,04,14,11,45,11.90
2015,04,14,11,46,11.90
2015,04,14,11,47,11.80
2015,04,14,11,48,11.80
2015,04,14,11,49,11.80
2015,04,14,11,50,11.70
2015,04,14,11,51,11.60
2015,04,14,11,52,11.50
2015,04,14,11,53,11.40
2015,04,14,11,54,11.40
2015,04,14,11,55,11.30
2015,04,14,11,56,11.20
2015,04,14,11,57,11.10
2015,04,14,11,58,11.10
2015,04,14,11,59,11.00
2015,04,14,12,00,11.00
2015,04,14,12,01,11.00
2015,04,14,12,02,10.90
2015,04,14,12,03,10.80
2015,04,14,12,04,10.60
2015,04,14,12,05,10.50
2015,04,14,12,06,10.40
2015,04,14,12,07,10.20
2015,04,14,12,08,10.10
2015,04,14,12,09,9.90
2015,04,14,12,10,9.80
2015,04,14,12,11,9.70
2015,04,14,12,12,9.60
2015,04,14,12,13,9.50
2015,04,14,12,14,9.40
2015,04,14,12,15,9.40
2015,04,14,12,16,9.40
2015,04,14,12,17,9.30
2015,04,14,12,18,9.30
2015,04,14,12,19,9.30
2015,04,14,12,20,9.30
2015,04,14,12,21,9.30
2015,04,14,12,22,9.30
2015,04,14,12,23,9.30
2015,04,14,12,24,9.30
2015,04,14,12,25,9.30
2015,04,14,12,26,9.30
2015,04,14,12,27,9.40
2015,04,14,12,28,9.40
2015,04,14,12,29,9.40
2015,04,14,12,30,9.40
2015,04,14,12,31,9.40
2015,04,14,12,32,9.40
2015,04,14,12,33,9.40
2015,04,14,12,34,9.40
2015,04,14,12,35,9.40
2015,04,14,12,36,9.50
2015,04,14,12,37,9.50
2015,04,14,12,38,9.60
2015,04,14,12,39,9.60
2015,04,14,12,40,9.60
2015,04,14,12,41,9.70
2015,04,14,12,42,9.70
2015,04,14,12,43,9.80
2015,04,14,12,44,9.80
2015,04,14,12,45,9.80
2015,04,14,12,46,9.80
2015,04,14,12,47,9.80
2015,04,14,12,48,9.80
2015,04,14,12,49,9.80
2015,04,14,12,50,9.80
2015,04,14,12,51,9.80
2015,04,14,12,52,9.90
2015,04,14,12,53,10.00
2015,04,14,12,54,10.10
2015,04,14,12,55,10.10
2015,04,14,12,56,10.10
2015,04,14,12,57,10.00
2015,04,14,12,58,10.00
2015,04,14,12,59,9.90
2015,04,14,13,00,10.00
2015,04,14,13,01,10.10
2015,04,14,13,02,10.20
2015,04,14,13,03,10.20
2015,04,14,13,04,10.30
2015,04,14,13,05,10.30
2015,04,14,13,06,10.40
2015,04,14,13,07,10.40
2015,04,14,13,08,10.40
2015,04,14,13,09,10.40
2015,04,14,13,10,10.40
2015,04,14,13,11,10.40
2015,04,14,13,12,10.40
2015,04,14,13,13,10.40
2015,04,14,13,14,10.30
2015,04,14,13,15,10.30
2015,04,14,13,16,10.20
2015,04,14,13,17,10.10
2015,04,14,13,18,10.00
2015,04,14,13,19,9.90
2015,04,14,13,20,9.80
2015,04,14,13,21,9.70
2015,04,14,13,22,9.60
2015,04,14,13,23,9.60
2015,04,14,13,24,9.60
2015,04,14,13,25,9.60
2015,04,14,13,26,9.70
2015,04,14,13,27,9.70
2015,04,14,13,28,9.80
2015,04,14,13,29,9.80
2015,04,14,13,30,9.80
2015,04,14,13,31,9.90
2015,04,14,13,32,10.00
2015,04,14,13,33,10.10
2015,04,14,13,34,10.20
2015,04,14,13,35,10.30
2015,04,14,13,36,10.40
2015,04,14,13,37,10.50
2015,04,14,13,38,10.60
2015,04,14,13,39,10.70
2015,04,14,13,40,10.70
2015,04,14,13,41,10.80
2015,04,14,13,42,10.80
2015,04,14,13,43,10.90
2015,04,14,13,44,11.00
2015,04,14,13,45,11.00
2015,04,14,13,46,11.10
2015,04,14,13,47,11.10
2015,04,14,13,48,11.10
2015,04,14,13,49,11.20
2015,04,14,13,50,11.30
2015,04,14,13,51,11.30
2015,04,14,13,52,11.40
2015,04,14,13,53,11.40
2015,04,14,13,54,11.40
2015,04,14,13,55,11.50
2015,04,14,13,56,11.60
2015,04,14,13,57,11.60
2015,04,14,13,58,11.60
2015,04,14,13,59,11.60
2015,04,14,14,00,11.60
2015,04,14,14,01,11.60
2015,04,14,14,02,11.60
2015,04,14,14,03,11.70
2015,04,14,14,04,11.70
2015,04,14,14,05,11.60
2015,04,14,14,06,11.60
2015,04,14,14,07,11.60
2015,04,14,14,08,11.50
2015,04,14,14,09,11.50
2015,04,14,14,10,11.40
2015,04,14,14,11,11.40
2015,04,14,14,12,11.50
2015,04,14,14,13,11.50
2015,04,14,14,14,11.60
2015,04,14,14,15,11.60
2015,04,14,14,16,11.70
2015,04,14,14,17,11.70
2015,04,14,14,18,11.70
2015,04,14,14,19,11.70
2015,04,14,14,20,11.70
2015,04,14,14,21,11.80
2015,04,14,14,22,11.80
2015,04,14,14,23,11.80
2015,04,14,14,24,11.90
2015,04,14,14,25,11.90
2015,04,14,14,26,12.00
2015,04,14,14,27,12.00
2015,04,14,14,28,12.10
2015,04,14,14,29,12.10
2015,04,14,14,30,12.10
2015,04,14,14,31,12.10
2015,04,14,14,32,12.00
2015,04,14,14,33,12.00
2015,04,14,14,34,11.90
2015,04,14,14,35,11.90
2015,04,14,14,36,12.00
2015,04,14,14,37,12.10
2015,04,14,14,38,12.10
2015,04,14,14,39,12.20
2015,04,14,14,40,12.20
2015,04,14,14,41,12.30
2015,04,14,14,42,12.30
2015,04,14,14,43,12.20
2015,04,14,14,44,12.20
2015,04,14,14,45,12.20
2015,04,14,14,46,12.20
2015,04,14,14,47,12.20
2015,04,14,14,48,12.20
2015,04,14,14,49,12.10
2015,04,14,14,50,12.00
2015,04,14,14,51,11.90
2015,04,14,14,52,11.80
2015,04,14,14,53,11.70
2015,04,14,14,54,11.60
2015,04,14,14,55,11.40
2015,04,14,14,56,11.20
2015,04,14,14,57,11.10
2015,04,14,14,58,11.00
2015,04,14,14,59,10.80
2015,04,14,15,00,10.60
2015,04,14,15,01,10.40
2015,04,14,15,02,10.20
2015,04,14,15,03,10.10
2015,04,14,15,04,10.00
2015,04,14,15,05,10.00
2015,04,14,15,06,9.90
2015,04,14,15,07,9.90
2015,04,14,15,08,9.90
2015,04,14,15,09,9.80
2015,04,14,15,10,9.80
2015,04,14,15,11,9.80
2015,04,14,15,12,9.70
2015,04,14,15,13,9.70
2015,04,14,15,14,9.60
2015,04,14,15,15,9.60
2015,04,14,15,16,9.60
2015,04,14,15,17,9.70
2015,04,14,15,18,9.70
2015,04,14,15,19,9.70
2015,04,14,15,20,9.70
2015,04,14,15,21,9.70
2015,04,14,15,22,9.70
2015,04,14,15,23,9.80
2015,04,14,15,24,9.80
2015,04,14,15,25,9.90
2015,04,14,15,26,10.00
2015,04,14,15,27,10.00
2015,04,14,15,28,10.10
2015,04,14,15,29,10.10
2015,04,14,15,30,10.10
2015,04,14,15,31,10.20
2015,04,14,15,32,10.20
2015,04,14,15,33,10.20
2015,04,14,15,34,10.20
2015,04,14,15,35,10.30
2015,04,14,15,36,10.30
2015,04,14,15,37,10.30
2015,04,14,15,38,10.40
2015,04,14,15,39,10.50
2015,04,14,15,40,10.60
2015,04,14,15,41,10.70
2015,04,14,15,42,10.80
2015,04,14,15,43,10.90
2015,04,14,15,44,10.90
2015,04,14,15,45,11.00
2015,04,14,15,46,11.10
2015,04,14,15,47,11.20
2015,04,14,15,48,11.30
2015,04,14,15,49,11.40
2015,04,14,15,50,11.40
2015,04,14,15,51,11.40
2015,04,14,15,52,11.50
2015,04,14,15,53,11.50
2015,04,14,15,54,11.60
2015,04,14,15,55,11.60
2015,04,14,15,56,11.60
2015,04,14,15,57,11.60
2015,04,14,15,58,11.60
2015,04,14,15,59,11.70
2015,04,14,16,00,11.70
2015,04,14,16,01,11.70
2015,04,14,16,02,11.60
2015,04,14,16,03,11.60
2015,04,14,16,04,11.60
2015,04,14,16,05,11.60
2015,04,14,16,06,11.60
2015,04,14,16,07,11.60
2015,04,14,16,08,11.60
2015,04,14,16,09,11.60
2015,04,14,16,10,11.60
2015,04,14,16,11,11.60
2015,04,14,16,12,11.60
2015,04,14,16,13,11.70
2015,04,14,16,14,11.80
2015,04,14,16,15,11.80
2015,04,14,16,16,11.80
2015,04,14,16,17,11.80
2015,04,14,16,18,11.90
2015,04,14,16,19,11.90
2015,04,14,16,20,11.90
2015,04,14,16,21,11.90
2015,04,14,16,22,11.90
2015,04,14,16,23,11.90
2015,04,14,16,24,11.80
2015,04,14,16,25,11.80
2015,04,14,16,26,11.60
2015,04,14,16,27,11.40
2015,04,14,16,28,11.30
2015,04,14,16,29,11.10
2015,04,14,16,30,11.00
2015,04,14,16,31,11.00
2015,04,14,16,32,10.90
2015,04,14,16,33,10.80
2015,04,14,16,34,10.70
2015,04,14,16,35,10.60
2015,04,14,16,36,10.50
2015,04,14,16,37,10.40
2015,04,14,16,38,10.40
2015,04,14,16,39,10.30
2015,04,14,16,40,10.30
2015,04,14,16,41,10.20
2015,04,14,16,42,10.20
2015,04,14,16,43,10.10
2015,04,14,16,44,10.10
2015,04,14,16,45,10.00
2015,04,14,16,46,9.90
2015,04,14,16,47,9.90
2015,04,14,16,48,9.80
2015,04,14,16,49,9.80
2015,04,14,16,50,9.80
2015,04,14,16,51,9.80
2015,04,14,16,52,9.80
2015,04,14,16,53,9.70
2015,04,14,16,54,9.70
2015,04,14,16,55,9.70
2015,04,14,16,56,9.70
2015,04,14,16,57,9.70
2015,04,14,16,58,9.70
2015,04,14,16,59,9.70
2015,04,14,17,00,9.70
2015,04,14,17,01,9.60
2015,04,14,17,02,9.60
2015,04,14,17,03,9.50
2015,04,14,17,04,9.50
2015,04,14,17,05,9.40
2015,04,14,17,06,9.40
2015,04,14,17,07,9.40
2015,04,14,17,08,9.40
2015,04,14,17,09,9.40
2015,04,14,17,10,9.40
2015,04,14,17,11,9.40
2015,04,14,17,12,9.40
2015,04,14,17,13,9.40
2015,04,14,17,14,9.40
2015,04,14,17,15,9.40
2015,04,14,17,16,9.40
2015,04,14,17,17,9.40
2015,04,14,17,18,9.40
2015,04,14,17,19,9.50
2015,04,14,17,20,9.50
2015,04,14,17,21,9.40
2015,04,14,17,22,9.40
2015,04,14,17,23,9.40
2015,04,14,17,24,9.40
2015,04,14,17,25,9.30
2015,04,14,17,26,9.30
2015,04,14,17,27,9.30
2015,04,14,17,28,9.30
2015,04,14,17,29,9.30
2015,04,14,17,30,9.30
2015,04,14,17,31,9.30
2015,04,14,17,32,9.30
2015,04,14,17,33,9.30
2015,04,14,17,34,9.20
2015,04,14,17,35,9.20
2015,04,14,17,36,9.30
2015,04,14,17,37,9.30
2015,04,14,17,38,9.30
2015,04,14,17,39,9.30
2015,04,14,17,40,9.30
2015,04,14,17,41,9.30
2015,04,14,17,42,9.30
2015,04,14,17,43,9.30
2015,04,14,17,44,9.30
2015,04,14,17,45,9.30
2015,04,14,17,46,9.30
2015,04,14,17,47,9.30
2015,04,14,17,48,9.30
2015,04,14,17,49,9.30
2015,04,14,17,50,9.30
2015,04,14,17,51,9.40
2015,04,14,17,52,9.40
2015,04,14,17,53,9.30